Weather History for Pinedale, WY

Change the Weather History Date:

Wednesday, September 4, 2013

  Actual Average (KBPI) Record (KBPI)
Temperature  
Mean Temperature 62 °F 54 °F  
Max Temperature 80 °F 73 °F 85 °F (1998)
Min Temperature 44 °F 35 °F 25 °F (2000)
Degree Days  
Heating Degree Days 3 11  
Month to date heating degree days 42  
Since 1 July heating degree days 335  
Cooling Degree Days 0 0  
Month to date cooling degree days 0  
Year to date cooling degree days 35  
Growing Degree Days 12 (Base 50)    
Moisture  
Dew Point 46 °F    
Average Humidity 62    
Maximum Humidity 100    
Minimum Humidity 21    
Precipitation  
Precipitation 0.00 in 0.03 in 0.44 in (2007)
Month to date precipitation 0.11  
Year to date precipitation 4.77  
Sea Level Pressure  
Sea Level Pressure 30.38 in    
Wind  
Wind Speed 5 mph (West)    
Max Wind Speed 13 mph    
Max Gust Speed 18 mph    
Visibility 10 miles    
Events      
T = Trace of Precipitation, MM = Missing Value Source: NWS Daily Summary

Daily Weather History Graph

Daily Weather History Graph

Search for Another Location

Airport:

Trip Planner

Search our weather history database for the weather conditions in past years. The results will help you decide how hot, cold, wet, or windy it might be!

Date:

Astronomy

Sep. 04, 2013 Rise Set
Actual Time 6:47 AM MDT 7:47 PM MDT
Civil Twilight 6:18 AM MDT 8:16 PM MDT
Nautical Twilight 5:44 AM MDT 8:51 PM MDT
Astronomical Twilight 5:07 AM MDT 9:27 PM MDT
Moon 6:03 AM MDT (9/4) 7:08 PM MDT (9/4)
Length of Visible Light 13h 58m
Length of Day
13h 00m
Waning Crescent, 1% of the Moon is Illuminated
Sep 4
Waning Crescent
Sep 5
New
Sep 12
First Quarter
Sep 19
Full
Sep 26
Last Quarter

Hourly Weather History & Observations

Time (MDT) Temp. Windchill Dew Point Humidity Pressure Visibility Wind Dir Wind Speed Gust Speed Precip Events Conditions
12:15 AM 57.2 °F - 53.6 °F 88% 30.35 in 10.0 mi West 6.9 mph - N/A   Mostly Cloudy
12:35 AM 55.4 °F - 53.6 °F 94% 30.35 in 10.0 mi West 8.1 mph - N/A   Clear
12:55 AM 53.6 °F - 51.8 °F 94% 30.35 in 10.0 mi West 9.2 mph - N/A   Clear
1:15 AM 53.6 °F - 51.8 °F 94% 30.36 in 10.0 mi NW 6.9 mph - N/A   Clear
1:35 AM 53.6 °F - 51.8 °F 94% 30.36 in 10.0 mi NW 8.1 mph - N/A   Clear
1:55 AM 51.8 °F - 51.8 °F 100% 30.36 in 10.0 mi NW 6.9 mph - N/A   Scattered Clouds
2:15 AM 51.8 °F - 51.8 °F 100% 30.35 in 10.0 mi WNW 4.6 mph - N/A   Mostly Cloudy
2:35 AM 51.8 °F - 51.8 °F 100% 30.36 in 10.0 mi WNW 5.8 mph - N/A   Mostly Cloudy
2:55 AM 50.0 °F - 50.0 °F 100% 30.35 in 10.0 mi WNW 5.8 mph - N/A   Clear
3:15 AM 50.0 °F - 50.0 °F 100% 30.36 in 10.0 mi WNW 3.5 mph - N/A   Clear
3:35 AM 50.0 °F - 50.0 °F 100% 30.36 in 10.0 mi NW 5.8 mph - N/A   Clear
3:55 AM 50.0 °F - 50.0 °F 100% 30.36 in 10.0 mi WNW 4.6 mph - N/A   Clear
4:15 AM 50.0 °F - 50.0 °F 100% 30.37 in 10.0 mi WNW 3.5 mph - N/A   Clear
4:35 AM 46.4 °F 45.2 °F 46.4 °F 100% 30.37 in 10.0 mi WNW 3.5 mph - N/A   Clear
4:55 AM 46.4 °F 44.3 °F 46.4 °F 100% 30.38 in 10.0 mi West 4.6 mph - N/A   Clear
5:15 AM 46.4 °F 44.3 °F 46.4 °F 100% 30.38 in 10.0 mi West 4.6 mph - N/A   Clear
5:35 AM 46.4 °F - 46.4 °F 100% 30.39 in 10.0 mi Calm Calm - N/A   Clear
5:55 AM 46.4 °F - 46.4 °F 100% 30.39 in 10.0 mi Calm Calm - N/A   Clear
6:15 AM 44.6 °F - 44.6 °F 100% 30.39 in 2.5 mi Calm Calm - N/A   Clear
6:35 AM 44.6 °F 43.1 °F 44.6 °F 100% 30.39 in 4.0 mi WNW 3.5 mph - N/A   Clear
6:55 AM 44.6 °F - 44.6 °F 100% 30.41 in 10.0 mi Calm Calm - N/A   Clear
7:15 AM 44.6 °F - 44.6 °F 100% 30.42 in 2.5 mi Calm Calm - N/A   Clear
7:35 AM 46.4 °F - 46.4 °F 100% 30.42 in 10.0 mi Calm Calm - N/A   Clear
7:55 AM 48.2 °F - 48.2 °F 100% 30.42 in 10.0 mi NW 3.5 mph - N/A   Clear
8:15 AM 50.0 °F - 50.0 °F 100% 30.43 in 10.0 mi Calm Calm - N/A   Clear
8:35 AM 53.6 °F - 51.8 °F 94% 30.43 in 10.0 mi Calm Calm - N/A   Clear
8:55 AM 53.6 °F - 51.8 °F 94% 30.43 in 10.0 mi Calm Calm - N/A   Clear
9:15 AM 57.2 °F - 51.8 °F 82% 30.43 in 10.0 mi Calm Calm - N/A   Clear
9:35 AM 60.8 °F - 51.8 °F 72% 30.43 in 10.0 mi Calm Calm - N/A   Clear
9:55 AM 62.6 °F - 51.8 °F 68% 30.43 in 10.0 mi Calm Calm - N/A   Clear
10:15 AM 64.4 °F - 51.8 °F 64% 30.43 in 10.0 mi Calm Calm - N/A   Clear
10:35 AM 68.0 °F - 51.8 °F 56% 30.44 in 10.0 mi ESE 3.5 mph - N/A   Clear
10:55 AM 69.8 °F - 50.0 °F 49% 30.44 in 10.0 mi East 3.5 mph - N/A   Clear
11:15 AM 71.6 °F - 48.2 °F 43% 30.44 in 10.0 mi SSE 4.6 mph - N/A   Clear
11:35 AM 71.6 °F - 48.2 °F 43% 30.43 in 10.0 mi SE 3.5 mph - N/A   Clear
11:55 AM 71.6 °F - 46.4 °F 41% 30.43 in 10.0 mi Calm Calm - N/A   Scattered Clouds
12:15 PM 73.4 °F - 44.6 °F 36% 30.43 in 10.0 mi West 4.6 mph - N/A   Scattered Clouds
12:35 PM 73.4 °F - 44.6 °F 36% 30.42 in 10.0 mi WSW 5.8 mph - N/A   Clear
12:55 PM 73.4 °F - 42.8 °F 33% 30.41 in 10.0 mi Calm Calm - N/A   Clear
1:15 PM 75.2 °F - 42.8 °F 31% 30.41 in 10.0 mi SW 5.8 mph - N/A   Clear
1:35 PM 77.0 °F - 41.0 °F 28% 30.40 in 10.0 mi WSW 6.9 mph - N/A   Clear
1:55 PM 77.0 °F - 42.8 °F 29% 30.40 in 10.0 mi SSW 4.6 mph - N/A   Scattered Clouds
2:15 PM 77.0 °F - 42.8 °F 29% 30.40 in 10.0 mi Calm Calm - N/A   Scattered Clouds
2:35 PM 78.8 °F - 42.8 °F 28% 30.39 in 10.0 mi South 6.9 mph - N/A   Clear
2:55 PM 80.6 °F - 41.0 °F 24% 30.39 in 10.0 mi SW 12.7 mph - N/A   Scattered Clouds
3:15 PM 78.8 °F - 41.0 °F 26% 30.38 in 10.0 mi West 8.1 mph 18.4 mph N/A   Scattered Clouds
3:35 PM 80.6 °F - 42.8 °F 26% 30.37 in 10.0 mi SSE 5.8 mph 16.1 mph N/A   Clear
3:55 PM 78.8 °F - 41.0 °F 26% 30.37 in 10.0 mi WSW 6.9 mph - N/A   Scattered Clouds
4:15 PM 80.6 °F - 41.0 °F 24% 30.36 in 10.0 mi West 11.5 mph 18.4 mph N/A   Scattered Clouds
4:35 PM 80.6 °F - 41.0 °F 24% 30.36 in 10.0 mi West 4.6 mph - N/A   Clear
4:55 PM 78.8 °F - 41.0 °F 26% 30.35 in 10.0 mi WSW 4.6 mph - N/A   Clear
5:15 PM 80.6 °F - 37.4 °F 21% 30.35 in 10.0 mi West 8.1 mph - N/A   Clear
5:35 PM 78.8 °F - 42.8 °F 28% 30.35 in 10.0 mi NNW 4.6 mph - N/A   Scattered Clouds
5:55 PM 78.8 °F - 41.0 °F 26% 30.35 in 10.0 mi NNE 3.5 mph - N/A   Scattered Clouds
6:15 PM 78.8 °F - 37.4 °F 23% 30.35 in 10.0 mi SSW 4.6 mph - N/A   Scattered Clouds
6:35 PM 78.8 °F - 41.0 °F 26% 30.34 in 10.0 mi North 3.5 mph - N/A   Clear
6:55 PM 78.8 °F - 41.0 °F 26% 30.34 in 10.0 mi NNE 5.8 mph - N/A   Clear
7:15 PM 75.2 °F - 42.8 °F 31% 30.34 in 10.0 mi NNW 6.9 mph - N/A   Clear
7:35 PM 73.4 °F - 42.8 °F 33% 30.34 in 10.0 mi NNW 4.6 mph - N/A   Clear
7:55 PM 69.8 °F - 44.6 °F 40% 30.34 in 10.0 mi West 3.5 mph - N/A   Clear
8:15 PM 68.0 °F - 44.6 °F 43% 30.35 in 10.0 mi West 5.8 mph - N/A   Clear
8:35 PM 64.4 °F - 44.6 °F 49% 30.35 in 10.0 mi WNW 4.6 mph - N/A   Clear
8:55 PM 62.6 °F - 46.4 °F 55% 30.36 in 10.0 mi NW 3.5 mph - N/A   Clear
9:15 PM 62.6 °F - 44.6 °F 52% 30.37 in 10.0 mi West 4.6 mph - N/A   Clear
9:35 PM 68.0 °F - 44.6 °F 43% 30.38 in 10.0 mi West 5.8 mph - N/A   Clear
9:55 PM 68.0 °F - 44.6 °F 43% 30.37 in 10.0 mi WNW 6.9 mph - N/A   Clear
10:15 PM 66.2 °F - 44.6 °F 46% 30.37 in 10.0 mi NW 4.6 mph - N/A   Clear
10:35 PM 64.4 °F - 44.6 °F 49% 30.37 in 10.0 mi North 6.9 mph - N/A   Scattered Clouds
10:55 PM 62.6 °F - 44.6 °F 52% 30.37 in 10.0 mi WSW 3.5 mph - N/A   Clear
11:15 PM 60.8 °F - 46.4 °F 59% 30.37 in 10.0 mi West 6.9 mph - N/A   Clear
11:35 PM 59.0 °F - 46.4 °F 63% 30.37 in 10.0 mi Calm Calm - N/A   Scattered Clouds
11:55 PM 59.0 °F - 46.4 °F 63% 30.37 in 10.0 mi WNW 4.6 mph - N/A   Mostly Cloudy